| time (UTC) | temp F | wind direction | speed MPH | gust MPH | rain 1hr in | rain 24hr in | rain mn in | humidity % | barometer mb |
| 20260506041803 | 48 | 310 | 0.0 | 1.0 | 0.00 | 0.00 | 0.00 | 85 | 1012.2 |
| 20260506040903 | 48 | 2 | 1.0 | 5.0 | 0.00 | 0.00 | 0.00 | 85 | 1012.0 |
| 20260506040003 | 48 | 349 | 1.0 | 4.0 | 0.00 | 0.00 | 0.00 | 85 | 1012.3 |
| 20260506035403 | 48 | 323 | 0.0 | 5.0 | 0.00 | 0.00 | 0.00 | 85 | 1012.2 |
| 20260506034524 | 49 | 0 | 0.0 | 0.0 | 0.00 | 0.00 | 0.00 | 84 | 1012.1 |
| 20260506033603 | 49 | 325 | 0.0 | 5.0 | 0.00 | 0.00 | 0.00 | 83 | 1012.0 |
| 20260506032724 | 49 | 326 | 1.0 | 3.0 | 0.00 | 0.00 | 0.00 | 82 | 1011.9 |
| 20260506031803 | 49 | 333 | 1.0 | 10.0 | 0.00 | 0.00 | 0.00 | 81 | 1011.9 |
| 20260506030903 | 49 | 317 | 0.0 | 3.0 | 0.00 | 0.00 | 0.00 | 81 | 1012.3 |
| 20260506030003 | 49 | 333 | 0.0 | 5.0 | 0.00 | 0.00 | 0.00 | 81 | 1012.1 |
| 20260506025403 | 49 | 0 | 0.0 | 0.0 | 0.00 | 0.00 | 0.00 | 81 | 1012.1 |
| 20260506024503 | 50 | 337 | 1.0 | 9.0 | 0.00 | 0.00 | 0.00 | 80 | 1012.0 |
| 20260506023603 | 50 | 0 | 0.0 | 0.0 | 0.00 | 0.00 | 0.00 | 80 | 1012.2 |
| 20260506022703 | 50 | 330 | 1.0 | 7.0 | 0.00 | 0.00 | 0.00 | 80 | 1012.0 |
| 20260506021824 | 50 | 328 | 1.0 | 7.0 | 0.00 | 0.00 | 0.00 | 80 | 1012.0 |
| 20260506020903 | 51 | 326 | 1.0 | 3.0 | 0.00 | 0.00 | 0.00 | 80 | 1012.0 |
| 20260506020003 | 51 | 332 | 1.0 | 7.0 | 0.00 | 0.00 | 0.00 | 80 | 1011.9 |
| 20260506015403 | 51 | 20 | 0.0 | 4.0 | 0.00 | 0.00 | 0.00 | 81 | 1011.9 |
| 20260506014524 | 51 | 30 | 0.0 | 5.0 | 0.00 | 0.00 | 0.00 | 81 | 1012.2 |
| 20260506013603 | 51 | 0 | 0.0 | 0.0 | 0.00 | 0.00 | 0.00 | 82 | 1012.2 |
| 20260506012703 | 51 | 319 | 0.0 | 3.0 | 0.00 | 0.00 | 0.00 | 81 | 1012.0 |
| 20260506011803 | 51 | 339 | 0.0 | 5.0 | 0.00 | 0.00 | 0.00 | 81 | 1012.1 |
| 20260506010903 | 51 | 329 | 1.0 | 5.0 | 0.00 | 0.00 | 0.00 | 80 | 1012.3 |
| 20260506010003 | 51 | 332 | 1.0 | 7.0 | 0.00 | 0.00 | 0.00 | 80 | 1012.2 |
| 20260506005403 | 51 | 338 | 1.0 | 7.0 | 0.00 | 0.00 | 0.00 | 79 | 1012.1 |
| 20260506004524 | 51 | 0 | 0.0 | 0.0 | 0.00 | 0.00 | 0.00 | 78 | 1012.1 |
| 20260506003603 | 52 | 346 | 1.0 | 7.0 | 0.00 | 0.00 | 0.00 | 78 | 1012.3 |
| 20260506002703 | 52 | 354 | 1.0 | 6.0 | 0.00 | 0.00 | 0.00 | 77 | 1012.2 |
| 20260506001824 | 52 | 359 | 2.0 | 15.0 | 0.00 | 0.00 | 0.00 | 75 | 1012.1 |
| 20260506000925 | 52 | 327 | 0.0 | 5.0 | 0.00 | 0.00 | 0.00 | 74 | 1012.2 |
| 20260506000004 | 52 | 30 | 1.0 | 10.0 | 0.00 | 0.00 | 0.00 | 74 | 1012.1 |
| 20260505235403 | 52 | 18 | 1.0 | 9.0 | 0.00 | 0.00 | 0.00 | 73 | 1012.3 |
| 20260505234503 | 52 | 353 | 1.0 | 7.0 | 0.00 | 0.00 | 0.00 | 73 | 1012.1 |
| 20260505233624 | 53 | 4 | 0.0 | 2.0 | 0.00 | 0.00 | 0.00 | 72 | 1012.2 |
| 20260505232703 | 53 | 339 | 0.0 | 4.0 | 0.00 | 0.00 | 0.00 | 72 | 1012.2 |
| 20260505231803 | 53 | 335 | 1.0 | 9.0 | 0.00 | 0.00 | 0.00 | 72 | 1012.2 |
| 20260505230905 | 53 | 348 | 1.0 | 9.0 | 0.00 | 0.00 | 0.00 | 73 | 1012.1 |
| 20260505230004 | 53 | 352 | 0.0 | 9.0 | 0.00 | 0.00 | 0.00 | 75 | 1012.2 |
| 20260505225403 | 54 | 336 | 1.0 | 7.0 | 0.00 | 0.00 | 0.00 | 77 | 1012.2 |
| 20260505224503 | 54 | 320 | 0.0 | 3.0 | 0.00 | 0.00 | 0.00 | 77 | 1012.2 |
| 20260505223603 | 54 | 335 | 0.0 | 3.0 | 0.00 | 0.00 | 0.00 | 77 | 1012.1 |
| 20260505222703 | 54 | 19 | 0.0 | 2.0 | 0.00 | 0.00 | 0.00 | 76 | 1012.1 |
| 20260505221824 | 54 | 341 | 0.0 | 5.0 | 0.00 | 0.00 | 0.00 | 76 | 1012.1 |
| 20260505220903 | 54 | 15 | 0.0 | 7.0 | 0.00 | 0.00 | 0.00 | 76 | 1011.9 |
| 20260505220003 | 54 | 326 | 0.0 | 2.0 | 0.00 | 0.00 | 0.00 | 77 | 1011.9 |
| 20260505215403 | 55 | 50 | 0.0 | 5.0 | 0.00 | 0.00 | 0.00 | 77 | 1012.0 |
| 20260505214503 | 55 | 355 | 0.0 | 5.0 | 0.00 | 0.00 | 0.00 | 76 | 1011.8 |
| 20260505213603 | 55 | 315 | 0.0 | 2.0 | 0.00 | 0.00 | 0.00 | 76 | 1012.1 |
| 20260505212724 | 55 | 0 | 0.0 | 0.0 | 0.00 | 0.00 | 0.00 | 76 | 1012.1 |
| 20260505211803 | 55 | 323 | 0.0 | 3.0 | 0.00 | 0.00 | 0.00 | 76 | 1011.8 |
| 20260505210903 | 55 | 0 | 0.0 | 0.0 | 0.00 | 0.00 | 0.00 | 76 | 1011.9 |
| 20260505210003 | 55 | 0 | 0.0 | 0.0 | 0.00 | 0.00 | 0.00 | 75 | 1011.5 |
| 20260505205403 | 55 | 0 | 0.0 | 0.0 | 0.00 | 0.00 | 0.00 | 75 | 1011.8 |
| 20260505204503 | 55 | 0 | 0.0 | 0.0 | 0.00 | 0.00 | 0.00 | 75 | 1011.7 |
| 20260505203624 | 55 | 0 | 0.0 | 0.0 | 0.00 | 0.00 | 0.00 | 75 | 1011.7 |
| 20260505202703 | 56 | 0 | 0.0 | 0.0 | 0.00 | 0.00 | 0.00 | 75 | 1011.8 |
| 20260505201803 | 56 | 0 | 0.0 | 0.0 | 0.00 | 0.00 | 0.00 | 75 | 1011.8 |
| 20260505200903 | 56 | 0 | 0.0 | 0.0 | 0.00 | 0.00 | 0.00 | 75 | 1011.7 |
| 20260505200004 | 56 | 0 | 0.0 | 0.0 | 0.00 | 0.00 | 0.00 | 75 | 1011.8 |
| 20260505195403 | 56 | 0 | 0.0 | 0.0 | 0.00 | 0.00 | 0.00 | 75 | 1011.7 |
| 20260505194503 | 56 | 330 | 0.0 | 7.0 | 0.00 | 0.00 | 0.00 | 74 | 1011.7 |
| 20260505193603 | 56 | 328 | 0.0 | 7.0 | 0.00 | 0.00 | 0.00 | 74 | 1011.7 |
| 20260505192703 | 56 | 320 | 0.0 | 3.0 | 0.00 | 0.00 | 0.00 | 74 | 1011.5 |
| 20260505191803 | 56 | 0 | 0.0 | 0.0 | 0.00 | 0.00 | 0.00 | 74 | 1011.4 |
| 20260505190903 | 57 | 0 | 0.0 | 0.0 | 0.00 | 0.00 | 0.00 | 73 | 1011.5 |
| 20260505190003 | 57 | 0 | 0.0 | 0.0 | 0.00 | 0.00 | 0.00 | 73 | 1011.5 |
| 20260505185403 | 57 | 0 | 0.0 | 0.0 | 0.00 | 0.00 | 0.00 | 73 | 1011.5 |
| 20260505184524 | 57 | 0 | 0.0 | 0.0 | 0.00 | 0.00 | 0.00 | 72 | 1011.4 |
| 20260505183603 | 58 | 0 | 0.0 | 0.0 | 0.00 | 0.00 | 0.00 | 72 | 1011.4 |
| 20260505182703 | 58 | 311 | 0.0 | 7.0 | 0.00 | 0.00 | 0.00 | 71 | 1011.6 |
| 20260505181824 | 58 | 324 | 0.0 | 7.0 | 0.00 | 0.00 | 0.00 | 71 | 1011.5 |
| 20260505180903 | 58 | 336 | 0.0 | 5.0 | 0.00 | 0.00 | 0.00 | 71 | 1011.7 |
| 20260505180003 | 58 | 0 | 0.0 | 0.0 | 0.00 | 0.00 | 0.00 | 70 | 1011.6 |
| 20260505175403 | 58 | 0 | 0.0 | 0.0 | 0.00 | 0.00 | 0.00 | 70 | 1011.8 |
| 20260505174503 | 58 | 0 | 0.0 | 0.0 | 0.00 | 0.00 | 0.00 | 70 | 1011.7 |
| 20260505173603 | 58 | 304 | 0.0 | 3.0 | 0.00 | 0.00 | 0.00 | 69 | 1011.7 |
| 20260505172703 | 58 | 0 | 0.0 | 0.0 | 0.00 | 0.00 | 0.00 | 68 | 1011.8 |
| 20260505171803 | 59 | 0 | 0.0 | 0.0 | 0.00 | 0.00 | 0.00 | 68 | 1011.7 |
| 20260505170903 | 58 | 0 | 0.0 | 0.0 | 0.00 | 0.00 | 0.00 | 69 | 1011.9 |
| 20260505170003 | 58 | 312 | 0.0 | 2.0 | 0.00 | 0.00 | 0.00 | 68 | 1012.1 |
| 20260505165403 | 58 | 326 | 0.0 | 5.0 | 0.00 | 0.00 | 0.00 | 69 | 1012.0 |
| 20260505164503 | 58 | 337 | 0.0 | 3.0 | 0.00 | 0.00 | 0.00 | 69 | 1011.7 |
| 20260505163603 | 58 | 308 | 0.0 | 5.0 | 0.00 | 0.00 | 0.00 | 69 | 1011.9 |
| 20260505162703 | 58 | 0 | 0.0 | 0.0 | 0.00 | 0.00 | 0.00 | 70 | 1011.8 |
| 20260505161825 | 58 | 0 | 0.0 | 0.0 | 0.00 | 0.00 | 0.00 | 69 | 1011.8 |
| 20260505160903 | 58 | 0 | 0.0 | 0.0 | 0.00 | 0.00 | 0.00 | 69 | 1011.9 |
| 20260505152724 | 59 | 345 | 0.0 | 3.0 | 0.00 | 0.00 | 0.00 | 68 | 1012.1 |
| 20260505151824 | 59 | 330 | 0.0 | 5.0 | 0.00 | 0.00 | 0.00 | 67 | 1012.0 |
| 20260505150903 | 58 | 18 | 0.0 | 7.0 | 0.00 | 0.00 | 0.00 | 67 | 1012.1 |
| 20260505124503 | 59 | 318 | 0.0 | 9.0 | 0.00 | 0.00 | 0.00 | 66 | 1013.0 |
| 20260505123624 | 59 | 353 | 0.0 | 2.0 | 0.00 | 0.00 | 0.00 | 66 | 1013.0 |
| 20260505122703 | 58 | 348 | 0.0 | 5.0 | 0.00 | 0.00 | 0.00 | 67 | 1012.9 |
| 20260505121803 | 58 | 324 | 0.0 | 5.0 | 0.00 | 0.00 | 0.00 | 67 | 1012.8 |
| 20260505120903 | 58 | 15 | 0.0 | 3.0 | 0.00 | 0.00 | 0.00 | 68 | 1012.9 |
| 20260505120004 | 56 | 329 | 0.0 | 3.0 | 0.00 | 0.00 | 0.00 | 70 | 1012.8 |
| 20260505115424 | 56 | 339 | 0.0 | 3.0 | 0.00 | 0.00 | 0.00 | 70 | 1012.7 |
| 20260505114503 | 58 | 342 | 0.0 | 9.0 | 0.00 | 0.00 | 0.00 | 69 | 1012.9 |
| 20260505113603 | 57 | 344 | 0.0 | 7.0 | 0.00 | 0.00 | 0.00 | 69 | 1012.7 |
| 20260505112703 | 58 | 346 | 0.0 | 7.0 | 0.00 | 0.00 | 0.00 | 69 | 1013.0 |
| 20260505111803 | 58 | 60 | 0.0 | 5.0 | 0.00 | 0.00 | 0.00 | 67 | 1013.0 |
| 20260505110903 | 57 | 348 | 1.0 | 10.0 | 0.00 | 0.00 | 0.00 | 70 | 1012.7 |
| 20260505101803 | 59 | 317 | 3.0 | 12.0 | 0.00 | 0.00 | 0.00 | 69 | 1012.9 |
| 20260505100903 | 61 | 318 | 3.0 | 12.0 | 0.00 | 0.00 | 0.00 | 65 | 1012.7 |
| 20260505100024 | 60 | 354 | 4.0 | 14.0 | 0.00 | 0.00 | 0.00 | 67 | 1012.5 |
| 20260505095403 | 59 | 351 | 4.0 | 10.0 | 0.00 | 0.00 | 0.00 | 68 | 1012.7 |
| 20260505094503 | 58 | 346 | 3.0 | 10.0 | 0.00 | 0.00 | 0.00 | 69 | 1012.7 |
| 20260505093603 | 58 | 321 | 3.0 | 9.0 | 0.00 | 0.00 | 0.00 | 70 | 1012.7 |
| 20260505092724 | 58 | 322 | 3.0 | 14.0 | 0.00 | 0.00 | 0.00 | 71 | 1012.7 |
| 20260505091803 | 58 | 344 | 4.0 | 12.0 | 0.00 | 0.00 | 0.00 | 70 | 1012.7 |
| 20260505090903 | 59 | 330 | 3.0 | 12.0 | 0.00 | 0.00 | 0.00 | 70 | 1012.6 |
| 20260505090003 | 58 | 338 | 3.0 | 9.0 | 0.00 | 0.00 | 0.00 | 71 | 1012.7 |
| 20260505085403 | 56 | 336 | 4.0 | 15.0 | 0.00 | 0.00 | 0.00 | 73 | 1013.0 |
| 20260505084503 | 56 | 334 | 3.0 | 10.0 | 0.00 | 0.00 | 0.00 | 74 | 1012.9 |
| 20260505083603 | 56 | 330 | 2.0 | 7.0 | 0.00 | 0.00 | 0.00 | 75 | 1012.7 |
| 20260505082703 | 56 | 319 | 3.0 | 12.0 | 0.00 | 0.00 | 0.00 | 74 | 1012.8 |
| 20260505081803 | 56 | 339 | 3.0 | 10.0 | 0.00 | 0.00 | 0.00 | 74 | 1012.7 |
| 20260505080903 | 56 | 346 | 3.0 | 10.0 | 0.00 | 0.00 | 0.00 | 74 | 1012.7 |
| 20260505080003 | 56 | 345 | 4.0 | 14.0 | 0.00 | 0.00 | 0.00 | 75 | 1012.6 |
| 20260505075403 | 55 | 341 | 3.0 | 10.0 | 0.00 | 0.00 | 0.00 | 76 | 1012.7 |
| 20260505074503 | 56 | 326 | 3.0 | 12.0 | 0.00 | 0.00 | 0.00 | 77 | 1012.7 |
| 20260505073603 | 56 | 336 | 2.0 | 10.0 | 0.00 | 0.00 | 0.00 | 76 | 1012.5 |
| 20260505072703 | 57 | 327 | 1.0 | 6.0 | 0.00 | 0.00 | 0.00 | 73 | 1012.5 |
| 20260505071803 | 57 | 338 | 2.0 | 12.0 | 0.00 | 0.00 | 0.00 | 74 | 1012.5 |
| 20260505070924 | 55 | 340 | 1.0 | 5.0 | 0.00 | 0.00 | 0.00 | 78 | 1012.6 |
| 20260505070003 | 54 | 5 | 2.0 | 9.0 | 0.00 | 0.00 | 0.00 | 82 | 1012.6 |
| 20260505065403 | 54 | 346 | 2.0 | 7.0 | 0.00 | 0.00 | 0.00 | 84 | 1012.7 |
| 20260505064503 | 53 | 320 | 1.0 | 9.0 | 0.00 | 0.00 | 0.00 | 86 | 1012.9 |
| 20260505063603 | 52 | 321 | 0.0 | 2.0 | 0.00 | 0.00 | 0.00 | 89 | 1012.9 |
| 20260505062703 | 52 | 338 | 0.0 | 5.0 | 0.00 | 0.00 | 0.00 | 90 | 1012.9 |
| 20260505061803 | 51 | 334 | 1.0 | 7.0 | 0.00 | 0.00 | 0.00 | 91 | 1012.9 |
| 20260505060903 | 51 | 353 | 0.0 | 9.0 | 0.00 | 0.00 | 0.00 | 92 | 1012.9 |
| 20260505060003 | 51 | 2 | 0.0 | 9.0 | 0.00 | 0.00 | 0.00 | 93 | 1013.0 |
| 20260505055403 | 50 | 0 | 0.0 | 0.0 | 0.00 | 0.00 | 0.00 | 93 | 1013.0 |
| 20260505054524 | 50 | 0 | 0.0 | 0.0 | 0.00 | 0.00 | 0.00 | 94 | 1013.0 |
| 20260505053603 | 50 | 0 | 0.0 | 0.0 | 0.00 | 0.00 | 0.00 | 94 | 1013.0 |
| 20260505052724 | 50 | 0 | 0.0 | 0.0 | 0.00 | 0.00 | 0.00 | 94 | 1013.1 |
| 20260505051803 | 50 | 0 | 0.0 | 0.0 | 0.00 | 0.00 | 0.00 | 94 | 1012.9 |
| 20260505050903 | 49 | 0 | 0.0 | 0.0 | 0.00 | 0.00 | 0.00 | 94 | 1012.7 |